Location: Bay Harbour
(38.2612°N, 75.2555°W)
Time: 02:00:50
(UTC+00:00)

Cosmos 2227 Rocket - Pass Details

Date: 29 October 2020
Orbit: 838 x 845 km, 71.0° (Epoch: 02 December)

Event Time Altitude Azimuth Distance (km) Brightness Sun altitude
Rises 23:41:53 0° 332° (NNW) 3,404 5.7 -19.7°
Reaches altitude 10° 23:44:23 10° 328° (NNW) 2,467 5.0 -20.2°
Maximum altitude 23:49:53 55° 252° (WSW) 1,012 2.9 -21.2°
Drops below altitude 10° 23:55:21 10° 177° (S) 2,456 4.6 -22.3°
Sets 23:57:50 0° 172° (S) 3,387 5.3 -22.8°
